WetterOnline ( https://www.wetteronline.de )

Wetter aktuell Nesselwang

Aktuelles Wetter: Kempten (705m)

6-stündlich | Neueste Meldungen
Ortszeit Temperatur Wetter
So, 29.05. 2:00 5.5° C bewölkt
Sa, 28.05. 20:00 13.0° C bewölkt
Sa, 28.05. 14:00 13.5° C bewölkt
Sa, 28.05. 8:00 10.2° C bedeckt
Sa, 28.05. 2:00 10.9° C Regen
Fr, 27.05. 20:00 17.3° C bewölkt
Fr, 27.05. 14:00 20.3° C leicht bewölkt
Fr, 27.05. 8:00 12.7° C leicht bewölkt
Ortszeit Temperatur Wetter
So, 29.05. 2:00 5.5° C bewölkt
So, 29.05. 1:50 5.5° C bewölkt
So, 29.05. 1:40 5.2° C bewölkt
So, 29.05. 1:30 5.3° C bewölkt
So, 29.05. 1:20 5.3° C bewölkt
So, 29.05. 1:10 5.6° C bewölkt
So, 29.05. 1:00 5.8° C wolkig
So, 29.05. 0:30 6.3° C leicht bewölkt
So, 29.05. 0:00 6.8° C wolkig
Sa, 28.05. 23:30 7.8° C wolkig
Sa, 28.05. 23:00 8.6° C bewölkt
Ortszeit Relative Feuchte Sichtweite
So, 29.05. 2:00 91% 55 km
Sa, 28.05. 20:00 46% 55 km
Sa, 28.05. 14:00 53% 50 km
Sa, 28.05. 8:00 88% 25 km
Sa, 28.05. 2:00 89% 65 km
Fr, 27.05. 20:00 59% 65 km
Fr, 27.05. 14:00 53% 60 km
Fr, 27.05. 8:00 82% >70 km
Ortszeit Relative Feuchte Sichtweite
So, 29.05. 2:00 91% 55 km
So, 29.05. 1:50 91% -
So, 29.05. 1:40 91% -
So, 29.05. 1:30 89% 45 km
So, 29.05. 1:20 89% -
So, 29.05. 1:10 91% -
So, 29.05. 1:00 90% 50 km
So, 29.05. 0:30 89% 50 km
So, 29.05. 0:00 88% 50 km
Sa, 28.05. 23:30 81% 60 km
Sa, 28.05. 23:00 79% 50 km
Ortszeit Niederschlagsmenge Niederschlagsart
So, 29.05. 2:00 0.0 l/m2 in 6 Std. -
Sa, 28.05. 20:00 0.0 l/m2 in 12 Std. -
Sa, 28.05. 14:00 0.0 l/m2 in 6 Std. -
Sa, 28.05. 8:00 2 l/m2 in 12 Std. Regen
Sa, 28.05. 2:00 2 l/m2 in 6 Std. Regen
Fr, 27.05. 20:00 0.0 l/m2 in 12 Std. -
Fr, 27.05. 14:00 0.0 l/m2 in 6 Std. -
Fr, 27.05. 8:00 0.0 l/m2 in 12 Std. -
Ortszeit Niederschlagsmenge Niederschlagsart
So, 29.05. 2:00 0.0 l/m2 in 1 Std. -
So, 29.05. 1:50 keine Meldung -
So, 29.05. 1:40 keine Meldung -
So, 29.05. 1:30 0.0 l/m2 in 1 Std. -
So, 29.05. 1:20 keine Meldung -
So, 29.05. 1:10 keine Meldung -
So, 29.05. 1:00 0.0 l/m2 in 1 Std. -
So, 29.05. 0:30 0.0 l/m2 in 1 Std. -
So, 29.05. 0:00 0.0 l/m2 in 1 Std. -
Sa, 28.05. 23:30 0.0 l/m2 in 1 Std. -
Sa, 28.05. 23:00 0.0 l/m2 in 1 Std. -
Ortszeit Stärke Spitze Richtung
km/h Bft. km/h Grad Sektor
So, 29.05. 2:00 4 1 14 140° SO
Sa, 28.05. 20:00 4 1 29 30° NO
Sa, 28.05. 14:00 6 1 17 360° N
Sa, 28.05. 8:00 7 2 18 330° NW
Sa, 28.05. 2:00 4 1 29 180° S
Fr, 27.05. 20:00 11 2 43 320° NW
Fr, 27.05. 14:00 13 3 35 270° W
Fr, 27.05. 8:00 7 2 20 200° S
Ortszeit Stärke Spitze Richtung
km/h Bft. km/h Grad Sektor
So, 29.05. 2:00 4 1 11 140° SO
So, 29.05. 1:50 4 1 - 140° SO
So, 29.05. 1:40 4 1 - 130° SO
So, 29.05. 1:30 4 1 11 70° O
So, 29.05. 1:20 4 1 - 70° O
So, 29.05. 1:10 4 1 - 90° O
So, 29.05. 1:00 4 1 7 100° O
So, 29.05. 0:30 4 1 7 90° O
So, 29.05. 0:00 0 0 7 - -
Sa, 28.05. 23:30 4 1 7 110° O
Sa, 28.05. 23:00 4 1 7 100° O
Ortszeit Untergrenze Bedeckung Gattung
total tief tief mittel hoch
So, 29.05. 2:00 2400 m 7/8 7/8 - - -
Sa, 28.05. 20:00 1500 m 7/8 6/8 - - -
Sa, 28.05. 14:00 1020 m 7/8 7/8 - - -
Sa, 28.05. 8:00 210 m 8/8 8/8 - - -
Sa, 28.05. 2:00 1500 m 8/8 8/8 - - -
Fr, 27.05. 20:00 1200 m 7/8 7/8 - - -
Fr, 27.05. 14:00 1140 m 3/8 3/8 - - -
Fr, 27.05. 8:00 1020 m 5/8 3/8 - - -
Ortszeit Bedeckungsgrad in Achtel und Wolkenuntergrenze
So, 29.05. 2:00 7(2400m)
So, 29.05. 1:50 7(2400m)
So, 29.05. 1:40 7
So, 29.05. 1:30 7(2400m)
So, 29.05. 1:20 7(2400m)
So, 29.05. 1:10 7
So, 29.05. 1:00 6(2400m)
So, 29.05. 0:30 3(2400m)
So, 29.05. 0:00 6(2400m)
Sa, 28.05. 23:30 1(2100m) 6(2400m)
Sa, 28.05. 23:00 3(1800m) 7(2400m)
Ortszeit Luftdruck NN (hPa) Tendenz (hPa in 3 Std.)
So, 29.05. 2:00 1016 - 1,8
Sa, 28.05. 20:00 1016 - 0,4
Sa, 28.05. 14:00 1018 - 1,2
Sa, 28.05. 8:00 1021 + 0,4
Sa, 28.05. 2:00 1021 - 0,8
Fr, 27.05. 20:00 1019 + 0,3
Fr, 27.05. 14:00 1019 - 1,1
Fr, 27.05. 8:00 1023 + 0,1
Ortszeit Luftdruck NN (hPa) Tendenz (hPa in 3 Std.)
So, 29.05. 2:00 1016 - 1,8
So, 29.05. 1:50 1016 keine Meldung
So, 29.05. 1:40 1016 keine Meldung
So, 29.05. 1:30 1016 - 2,0
So, 29.05. 1:20 1016 keine Meldung
So, 29.05. 1:10 1016 keine Meldung
So, 29.05. 1:00 1016 - 1,7
So, 29.05. 0:30 1017 - 1,4
So, 29.05. 0:00 1017 - 1,1
Sa, 28.05. 23:30 1017 - 1,0
Sa, 28.05. 23:00 1017 - 0,8
Ortszeit Schneehöhe (cm)
So, 29.05. 2:00 0
Sa, 28.05. 20:00 0
Sa, 28.05. 14:00 0
Sa, 28.05. 8:00 0
Sa, 28.05. 2:00 0
Fr, 27.05. 20:00 0
Fr, 27.05. 14:00 0
Fr, 27.05. 8:00 0
Ortszeit Schneehöhe (cm)
So, 29.05. 2:00 0
So, 29.05. 1:50 0
So, 29.05. 1:40 0
So, 29.05. 1:30 0
So, 29.05. 1:20 0
So, 29.05. 1:10 0
So, 29.05. 1:00 0
So, 29.05. 0:30 0
So, 29.05. 0:00 0
Sa, 28.05. 23:30 0
Sa, 28.05. 23:00 0
Link zu dieser Seite / Seite empfehlen

Das Wetter in ...